| time (UTC) | temp C | wind direction | speed KPH | gust KPH | rain 1hr cm | rain 24hr cm | rain mn cm | humidity % | barometer mb |
| 20260504050021 | 8 | 146 | 0.0 | 0.0 | 0.00 | 0.00 | 0.00 | 62 | 1011.5 |
| 20260504044520 | 8 | 172 | 0.0 | 0.0 | 0.00 | 0.00 | 0.00 | 58 | 1011.5 |
| 20260504043017 | 8 | 198 | 0.0 | 0.0 | 0.00 | 0.00 | 0.00 | 56 | 1011.5 |
| 20260504041514 | 9 | 215 | 0.0 | 0.0 | 0.00 | 0.00 | 0.00 | 57 | 1011.4 |
| 20260504040011 | 9 | 219 | 0.0 | 0.0 | 0.00 | 0.00 | 0.00 | 54 | 1011.3 |
| 20260504034519 | 10 | 219 | 0.0 | 0.0 | 0.00 | 0.00 | 0.00 | 53 | 1011.2 |
| 20260504033021 | 10 | 219 | 0.0 | 0.0 | 0.00 | 0.00 | 0.00 | 53 | 1011.1 |
| 20260504031510 | 10 | 219 | 0.0 | 0.0 | 0.00 | 0.00 | 0.00 | 51 | 1011.1 |
| 20260504030010 | 10 | 219 | 0.0 | 0.0 | 0.00 | 0.00 | 0.00 | 49 | 1011.0 |
| 20260504024528 | 11 | 219 | 0.0 | 3.2 | 0.00 | 0.00 | 0.00 | 48 | 1011.0 |
| 20260504023009 | 11 | 219 | 1.6 | 11.3 | 0.00 | 0.00 | 0.00 | 47 | 1011.0 |
| 20260504021508 | 11 | 227 | 3.2 | 8.0 | 0.00 | 0.00 | 0.00 | 46 | 1011.0 |
| 20260504020008 | 11 | 238 | 3.2 | 6.4 | 0.00 | 0.00 | 0.00 | 46 | 1010.9 |
| 20260504014508 | 11 | 229 | 3.2 | 9.7 | 0.00 | 0.00 | 0.00 | 46 | 1010.9 |
| 20260504013007 | 12 | 216 | 3.2 | 6.4 | 0.00 | 0.00 | 0.00 | 45 | 1010.8 |
| 20260504011506 | 12 | 227 | 3.2 | 11.3 | 0.00 | 0.00 | 0.00 | 45 | 1010.8 |
| 20260504010007 | 12 | 237 | 3.2 | 6.4 | 0.00 | 0.00 | 0.00 | 44 | 1010.7 |
| 20260504004513 | 12 | 225 | 4.8 | 8.0 | 0.00 | 0.00 | 0.00 | 43 | 1010.6 |
| 20260504003005 | 12 | 234 | 4.8 | 6.4 | 0.00 | 0.00 | 0.00 | 43 | 1010.4 |
| 20260504001505 | 13 | 235 | 4.8 | 9.7 | 0.00 | 0.00 | 0.00 | 42 | 1010.3 |
| 20260504000004 | 13 | 234 | 4.8 | 14.5 | 0.00 | 0.00 | 0.00 | 42 | 1010.1 |
| 20260503234504 | 13 | 227 | 4.8 | 11.3 | 0.00 | 0.00 | 0.00 | 41 | 1010.1 |
| 20260503233004 | 13 | 238 | 4.8 | 8.0 | 0.00 | 0.00 | 0.00 | 40 | 1010.0 |
| 20260503231503 | 14 | 237 | 4.8 | 12.9 | 0.00 | 0.00 | 0.00 | 40 | 1010.0 |
| 20260503230003 | 14 | 240 | 6.4 | 12.9 | 0.00 | 0.00 | 0.00 | 39 | 1009.9 |
| 20260503224503 | 14 | 240 | 6.4 | 12.9 | 0.00 | 0.00 | 0.00 | 38 | 1009.9 |
| 20260503223001 | 14 | 238 | 6.4 | 12.9 | 0.00 | 0.00 | 0.00 | 39 | 1009.8 |
| 20260503221501 | 15 | 246 | 9.7 | 16.1 | 0.00 | 0.00 | 0.00 | 37 | 1009.8 |
| 20260503220003 | 15 | 246 | 9.7 | 19.3 | 0.00 | 0.00 | 0.00 | 38 | 1009.9 |
| 20260503214500 | 15 | 237 | 6.4 | 11.3 | 0.00 | 0.00 | 0.00 | 37 | 1009.9 |
| 20260503213103 | 15 | 244 | 9.7 | 17.7 | 0.00 | 0.00 | 0.00 | 37 | 1009.8 |
| 20260503211605 | 15 | 239 | 4.8 | 12.9 | 0.00 | 0.00 | 0.00 | 37 | 1009.7 |
| 20260503210059 | 16 | 246 | 8.0 | 20.9 | 0.00 | 0.00 | 0.00 | 37 | 1009.7 |
| 20260503204600 | 16 | 242 | 6.4 | 17.7 | 0.00 | 0.00 | 0.00 | 37 | 1009.7 |
| 20260503203057 | 16 | 248 | 4.8 | 12.9 | 0.00 | 0.00 | 0.00 | 36 | 1009.8 |
| 20260503201657 | 16 | 211 | 4.8 | 12.9 | 0.00 | 0.00 | 0.00 | 41 | 1009.8 |
| 20260503200055 | 16 | 243 | 6.4 | 16.1 | 0.00 | 0.00 | 0.00 | 36 | 1009.8 |
| 20260503194553 | 15 | 283 | 11.3 | 19.3 | 0.00 | 0.00 | 0.00 | 36 | 1010.2 |
| 20260503193056 | 16 | 240 | 3.2 | 11.3 | 0.00 | 0.00 | 0.00 | 36 | 1010.3 |
| 20260503191550 | 15 | 233 | 6.4 | 16.1 | 0.00 | 0.00 | 0.00 | 39 | 1010.5 |
| 20260503190055 | 15 | 240 | 6.4 | 14.5 | 0.00 | 0.00 | 0.00 | 42 | 1010.6 |
| 20260503184601 | 15 | 243 | 4.8 | 12.9 | 0.00 | 0.00 | 0.00 | 38 | 1010.7 |
| 20260503183045 | 15 | 170 | 1.6 | 8.0 | 0.00 | 0.00 | 0.00 | 45 | 1010.9 |
| 20260503181544 | 15 | 263 | 6.4 | 16.1 | 0.00 | 0.00 | 0.00 | 37 | 1011.1 |
| 20260503180043 | 15 | 252 | 1.6 | 12.9 | 0.00 | 0.00 | 0.00 | 40 | 1011.1 |
| 20260503174559 | 13 | 239 | 3.2 | 14.5 | 0.00 | 0.00 | 0.00 | 40 | 1011.4 |
| 20260503173041 | 13 | 258 | 6.4 | 17.7 | 0.00 | 0.00 | 0.00 | 41 | 1011.6 |
| 20260503171537 | 13 | 122 | 3.2 | 12.9 | 0.00 | 0.00 | 0.00 | 41 | 1011.9 |
| 20260503081540 | 4 | 264 | 0.0 | 1.6 | 0.00 | 0.03 | 0.00 | 71 | 1011.8 |
| 20260503071531 | 5 | 248 | 0.0 | 6.4 | 0.00 | 0.03 | 0.00 | 69 | 1011.3 |